Regional Weather Roundup
Issued by NWS

Home | Current Version | Previous Version | Text Only | Print | Product List | Glossary Off
Versions: 1 2 3 4 5 6 7 8 9 10 11 12 13 14 15 16 17 18 19 20 21 22 23 24 25 26 27

000
ASUS45 KBOU 080007
RWRCO

WEATHER ROUNDUP FOR COLORADO
NATIONAL WEATHER SERVICE DENVER/BOULDER CO
500 PM MST WED DEC 07 2016

NOTE: "FAIR" INDICATES FEW OR NO CLOUDS BELOW 12000 FEET WITH NO
SIGNIFICANT WEATHER AND/OR OBSTRUCTIONS TO VISIBILITY.

COZ001>005-013-030-031-080100-
...NORTHWEST COLORADO...

CITY           SKY/WX    TMP DP  RH WIND       PRES   REMARKS
CRAIG          FAIR       8  -1  66 N3        30.23R
HAYDEN         FAIR      10   0  61 N5        30.20R WCI   2
MEEKER         FAIR       9   5  84 N3        30.19R
MOUNT WERNER   NOT AVBL
STEAMBOAT SPGS FAIR       9   0  66 SW5       30.18R WCI   0
WALDEN           N/A     -2  -8  78 N6        30.11R WCI -14
$$

COZ006>008-011-080100-
...WEST CENTRAL VALLEYS...

CITY           SKY/WX    TMP DP  RH WIND       PRES   REMARKS
GRAND JUNCTION FAIR      27   6  41 CALM      30.20R
MONTROSE       FAIR      24   6  46 W6        30.20R WCI  17
EAGLE          MOCLDY    19   1  45 W5        30.19R WCI  13
RIFLE          CLOUDY    23   6  48 W7        30.21R WCI  15
DELTA          FAIR      31   0  25 W6        30.19R WCI  26
NUCLA          FAIR      28   0  29 NW8       30.19R WCI  20
$$

COZ017>023-064>068-080100-
...SOUTHWEST COLORADO...

CITY           SKY/WX    TMP DP  RH WIND       PRES   REMARKS
DURANGO        FAIR      28  -3  26 W15       30.06R WCI  16
CORTEZ         FAIR      29   1  30 N7        30.14R WCI  22
PAGOSA SPRINGS FAIR      27  -4  25 SW8       30.05R WCI  18
TELLURIDE      FAIR      15  -4  43 W5        30.07R WCI   7
WOLF CREEK PAS FAIR       5  -4  66 S21G29    29.98R WCI -16
$$

COZ009-010-012-014-032>034-037-058>063-080100-
...CENTRAL COLORADO...

CITY           SKY/WX    TMP DP  RH WIND       PRES   REMARKS
ASPEN          FLURRIES  13   5  70 SW6       30.10R WCI   4
BUENA VISTA    FAIR      14  -3  47 NW5       30.07R WCI   6
COPPER MTN     CLOUDY     0  -8  71 MISG      29.89R
BERTHOUD PASS  LGT SNOW -13 -24  58 MISG      29.82R VSB 3/4
COTTONWOOD PAS MOCLDY    12   0  57 SW5       29.98R WCI   4
GUNNISON       FAIR      16   0  49 W3        30.10R
KREMMLING      FAIR      14   1  57 N5        30.16R WCI   6
LEADVILLE      CLOUDY     2  -6  69 NW8       29.98R WCI -12
MONARCH PASS   LGT SNOW   0  -6  78 W30G38    30.01R WCI -26
SALIDA         FAIR      21  -3  35 W15       30.15R WCI   7
SUNLIGHT       LGT SNOW   0  -4  85 W7        30.03R WCI -13
WILKERSON PASS FAIR       1  -9  60 NW9G18    29.95R WCI -14
$$

COZ069>075-080100-
...SAN LUIS VALLEY/SANGRE DE CRISTO MOUNTAINS...

CITY           SKY/WX    TMP DP  RH WIND       PRES   REMARKS
ALAMOSA        FAIR      22   1  40 N10       30.03R WCI  11
LA VETA PASS   LGT SNOW   1  -2  85 S6        29.97R VSB 3/4 WCI -10
SAGUACHE       FAIR      21  -4  33 NW15G22   30.06R WCI   8
$$

COZ035-036-038>040-080100-
...NORTHERN COLORADO FRONT RANGE...

CITY           SKY/WX    TMP DP  RH WIND       PRES   REMARKS
DENVER INTL AP MOCLDY     6   1  80 N6        30.29R WCI  -4
DMNS CITY PARK   N/A      9   4  80 NE10      30.31R WCI  -5
AURORA         FLURRIES   8   4  85 NE8       30.27R WCI  -5
FRONT RANGE AP CLOUDY    10   5  79 N7        30.29  WCI   0
ERIE MUNI ARPT FAIR       9   3  77 SE3       30.32R
BOULDER MUN AP LGT SNOW  10   5  79 E6        30.30R WCI   1
CENTENNIAL     FLURRIES   8   2  76 NE3       30.25R
BROOMFIELD     NOT AVBL
FORT COLLINS   CLOUDY     9   1  72 SE3       30.32R
LONGMONT       FAIR      10   4  78 CALM      30.34R
$$

COZ041-046-047-076>085-087-088-080100-
...PIKES PEAK/PALMER DIVIDE AND SOUTHERN FOOTHILLS...

CITY           SKY/WX    TMP DP  RH WIND       PRES   REMARKS
COLO. SPRINGS  LGT SNOW  14   9  80 NE7       30.20R WCI   4
A. F. ACADEMY  CLOUDY     9   2  74 N9        30.17R WCI  -4
SCHRIEVER AFB  NOT AVBL
ELLICOTT       LGT RAIN N/A N/A N/A NE6         N/A
FALCON         MOCLDY     6   1  82 N6        30.16R WCI  -5
FORT CARSON    CLOUDY    16   9  75 E2        30.20R
LIMON          CLOUDY     8   3  80 N13       30.28R WCI  -8
MONUMENT HILL  CLOUDY     3   1  92 N3        30.17R
TRINIDAD       CLOUDY    17  10  74 NE8       30.21R WCI   7
$$

COZ042>045-048>051-090-091-080100-
...NORTHEAST COLORADO...

CITY           SKY/WX    TMP DP  RH WIND       PRES   REMARKS
GREELEY ARPT   FAIR       6  -1  73 NE5       30.36R WCI  -3
AKRON          FAIR       4  -1  80 NW10      30.32R WCI -11
BURLINGTON     CLOUDY    13   4  67 NW14      30.34R WCI  -2
WRAY           NOT AVBL
STERLING       FAIR       7   0  72 NW9       30.36R WCI  -7
HOLYOKE        FAIR      14   7  73 NW9       30.37R WCI   2
FORT MORGAN    FAIR       2  -4  74 NW6       30.35R WCI  -9
$$

COZ086-089-092>099-080100-
...SOUTHEAST COLORADO...

CITY           SKY/WX    TMP DP  RH WIND       PRES   REMARKS
PUEBLO         LGT SNOW  20  15  81 SE12      30.28R WCI   8
LA JUNTA       MOCLDY    18  11  74 E7        30.33R WCI   9
LAMAR          CLOUDY    17  10  74 NE8       30.34R WCI   7
SPRINGFIELD      N/A     15  11  83 N12       30.28R WCI   2
$$




USA.gov is the U.S. government's official web portal to all federal, state and local government web resources and services.